sat.trackr.live / text

‹ back to catalog

LEMUR-2-ALISIA

NORAD 62706 · 2025-009DB

PAYLOAD ACTIVE UNKNOWN

§ Identity

Operator
Country
US
Launch date
2025-01-14
Launch site
AFWTR
Launch vehicle
Mass (kg)
RCS (m²)

Purposes: earth_obs

External: N2YO · Heavens-Above · Gunter

§ Orbital elements

Epoch: 2026-05-25T03:51:36.702144Z

Period
95.85 min
Inclination
97.6974°
Eccentricity
0.0000786
Mean motion
15.02358478 rev/d
Perigee alt
559.1 km
Apogee alt
560.2 km
Semi-major
6,937.8 km
B*
5.7440e-4
RAAN
227.4890°
Arg perigee
331.3490°
Mean anomaly
28.7691°
Rev number
9,670

§ Raw data

LEMUR-2-ALISIA1 62706U 25009DB  26145.16084146  .00007542  00000+0  57440-3 0  99952 62706  97.6974 227.4890 0000786 331.3490  28.7691 15.02358478 96709

JSON: /api/v1/satellites/62706 · /tle

For live sub-satellite position, see the globe view (requires WebGL).

§ Visibility from observer

Set your observer location to see the next 7 days of passes ≥ 10°. The values pass through the URL so the page stays shareable.

No JS? Fill the form by hand. The geolocation button needs JavaScript.